Tracking 17264 objects as of 1-September-2015
HD Live streaming from Space Station

SKYNET 5B

Track SKYNET 5B now!
SKYNET 5B is classified as:


NORAD ID: 32294
Int'l Code: 2007-056B
Perigee: 35,778.3 km
Apogee: 35,809.9 km
Inclination: 0.1 °
Period: 1,436.1 minutes
Semi major axis: 42165 km
RCS: 14.1589 m2 (large)
Launch date: November 14, 2007
Source: United Kingdom (UK)

Star One C1 is a C-, Ku-, and X-band telecommunications, multimedia and broadband internet satellite that will serve South America
Your satellite tracking list
Your tracking list is empty





NASA's NSSDC Master Catalog

Two Line Element Set (TLE):
1 32294U 07056B   15242.84300164  .00000115  00000-0  00000+0 0  9994
2 32294 000.0697 349.3081 0003747 164.3764 152.8537 01.00270488 28678

Source of the keplerian elements: AFSPC

N2YO: 263